Weather History for KP58 - August, 2014

Change the Weather History Date:

Saturday, August 9, 2014

  Actual Average (WUND) Record (WUND)
Temperature  
Mean Temperature 64 °F -  
Max Temperature 72 °F - - (-1)
Min Temperature 57 °F - - (-1)
Degree Days  
Heating Degree Days 1    
Growing Degree Days 14 (Base 50)    
Moisture  
Dew Point 59 °F    
Average Humidity 78    
Maximum Humidity 93    
Minimum Humidity 66    
Precipitation  
Precipitation 0.00 in - - ()
Sea Level Pressure  
Sea Level Pressure 30.15 in    
Wind  
Wind Speed 2 mph (ENE)    
Max Wind Speed 7 mph    
Max Gust Speed -    
Averages and records for this station are not official NWS values.
T = Trace of Precipitation, MM = Missing Value Source: NWS Daily Summary

Daily Weather History Graph

Daily Weather History Graph

Search for Another Location

Airport or City:

Trip Planner

Search our weather history database for the weather conditions in past years. The results will help you decide how hot, cold, wet, or windy it might be!

Date:

Astronomy

Aug. 09, 2014 Rise Set
Actual Time 6:28 AM EDT 8:44 PM EDT
Civil Twilight 5:56 AM EDT 9:16 PM EDT
Nautical Twilight 5:16 AM EDT 9:55 PM EDT
Astronomical Twilight 4:32 AM EDT 10:39 PM EDT
Moon 7:44 PM EDT (8/9) 5:07 AM EDT (8/9)
Length of Visible Light 15h 20m
Length of Day
14h 16m
Waxing Gibbous, 98% of the Moon is Illuminated
Aug 9
Waxing Gibbous
Aug 10
Full
Aug 17
Last Quarter
Aug 25
New
Sep 2
First Quarter

Hourly Weather History & Observations

Time (EDT) Temp. Dew Point Humidity Pressure Visibility Wind Dir Wind Speed Gust Speed Precip Events Conditions
12:51 AM 59.0 °F 55.0 °F 87% 30.13 in - Calm Calm - N/A   Unknown
1:51 AM 57.9 °F 55.0 °F 90% 30.14 in - Calm Calm - N/A   Unknown
2:51 AM 57.9 °F 55.0 °F 90% 30.14 in - Calm Calm - N/A   Unknown
3:51 AM 57.9 °F 55.0 °F 90% 30.14 in - Calm Calm - N/A   Unknown
4:51 AM 59.0 °F 55.9 °F 90% 30.14 in - East 5.8 mph - N/A   Unknown
5:51 AM 57.9 °F 55.9 °F 93% 30.14 in - Calm Calm - N/A   Unknown
6:51 AM 59.0 °F 57.0 °F 93% 30.14 in - Calm Calm - N/A   Unknown
7:51 AM 63.0 °F 59.0 °F 87% 30.15 in - Calm Calm - N/A   Unknown
8:51 AM 68.0 °F 61.0 °F 78% 30.16 in - East 6.9 mph - N/A   Unknown
9:51 AM 70.0 °F 61.0 °F 73% 30.17 in - ENE 3.5 mph - N/A   Unknown
10:51 AM 70.0 °F 61.0 °F 73% 30.18 in - ENE 5.8 mph - N/A   Unknown
11:51 AM 70.0 °F 62.1 °F 76% 30.18 in - ENE 6.9 mph - N/A   Unknown
12:51 PM 71.1 °F 61.0 °F 70% 30.18 in - ENE 5.8 mph - N/A   Unknown
1:51 PM 71.1 °F 61.0 °F 70% 30.17 in - ENE 5.8 mph - N/A   Unknown
2:51 PM 71.1 °F 61.0 °F 70% 30.17 in - ENE 4.6 mph - N/A   Unknown
3:51 PM 71.1 °F 61.0 °F 70% 30.15 in - ENE 5.8 mph - N/A   Unknown
4:51 PM 71.1 °F 60.1 °F 68% 30.14 in - ENE 4.6 mph - N/A   Unknown
5:51 PM 71.1 °F 59.0 °F 66% 30.14 in - NE 5.8 mph - N/A   Unknown
6:51 PM 71.1 °F 59.0 °F 66% 30.13 in - NE 5.8 mph - N/A   Unknown
7:51 PM 70.0 °F 59.0 °F 68% 30.11 in - NE 5.8 mph - N/A   Unknown
8:51 PM 69.1 °F 59.0 °F 70% 30.12 in - NNE 5.8 mph - N/A   Unknown
9:51 PM 63.0 °F 57.9 °F 84% 30.13 in - Calm Calm - N/A   Unknown